Location: ?ernice
(48.8383°N, 14.3803°E)
Time: 17:44:25
(UTC+00:00)

FENGYUN 3A - Pass Details

Date: 23 May 2024
Orbit: 821 x 835 km, 98.6° (Epoch: 12 June)

Event Time Altitude Azimuth Distance (km) Brightness Sun altitude
Rises 02:14:13 0° 10° (N) 3,372 7.8 -8.1°
Reaches altitude 10° 02:16:38 10° 5° (N) 2,433 6.9 -7.8°
Maximum altitude 02:21:46 47° 293° (WNW) 1,076 4.1 -7.2°
Drops below altitude 10° 02:26:52 10° 220° (SW) 2,415 5.4 -6.6°
Enters shadow 02:27:27 - 219° (SW) 2,635 5.6 -6.5°
